Leadville, CO

7:43 PM MDT on March 25, 2017 (GMT -0600)
Lake County

Weather History for KLXV - December, 2011

Change the Weather History Date:

Sunday, December 4, 2011

  Actual Average Record
Temperature  
Mean Temperature 7 °F -  
Max Temperature 14 °F 30 °F 53 °F (1987)
Min Temperature -1 °F 6 °F -9 °F (2013)
Degree Days  
Heating Degree Days 58 47  
Month to date heating degree days 208 187  
Since 1 July heating degree days 3377 3592  
Cooling Degree Days 0 0  
Month to date cooling degree days 0 0  
Year to date cooling degree days 0 0  
Moisture  
Dew Point 0 °F    
Average Humidity 67    
Maximum Humidity 91    
Minimum Humidity 42    
Precipitation  
Precipitation 0.01 in 0.02 in 0.80 in (1977)
Month to date precipitation 0.13 0.10  
Year to date precipitation 14.66 11.80  
Sea Level Pressure  
Sea Level Pressure 29.93 in    
Wind  
Wind Speed 7 mph (NW)    
Max Wind Speed 18 mph    
Max Gust Speed 23 mph    
Visibility 6 miles    
Events Snow    
T = Trace of Precipitation, MM = Missing Value Source: NWS Daily Summary

Daily Weather History Graph

Daily Weather History Graph

Search for Another Location

Airport or City:

Trip Planner

Search our weather history database for the weather conditions in past years. The results will help you decide how hot, cold, wet, or windy it might be!

Date:

Astronomy

Dec. 04, 2011 Rise Set
Actual Time 7:08 AM MST 4:42 PM MST
Civil Twilight 6:38 AM MST 5:12 PM MST
Nautical Twilight 6:05 AM MST 5:45 PM MST
Astronomical Twilight 5:33 AM MST 6:17 PM MST
Moon 1:12 PM MST (12/4) 1:37 AM MST (12/4)
Length of Visible Light 10h 33m
Length of Day
9h 33m
Waxing Gibbous, 72% of the Moon is Illuminated
Dec 4
Waxing Gibbous
Dec 10
Full
Dec 17
Last Quarter
Dec 24
New
Dec 31
First Quarter

Hourly Weather History & Observations

Time (MST) Temp. Windchill Dew Point Humidity Pressure Visibility Wind Dir Wind Speed Gust Speed Precip Events Conditions
12:53 AM 9.0 °F -0.9 °F 5.0 °F 84% 29.91 in 5.0 mi North 5.8 mph - 0.00 in   Overcast
1:51 AM 8.6 °F -2.6 °F 3.2 °F 79% 29.83 in 10.0 mi NNE 6.9 mph - N/A   Mostly Cloudy
1:53 AM 8.1 °F -4.3 °F 3.0 °F 80% 29.90 in 10.0 mi NNE 8.1 mph - N/A   Overcast
2:36 AM 6.8 °F -5.9 °F 3.2 °F 85% 29.85 in 3.0 mi NNE 8.1 mph - 0.00 in Snow Light Snow
2:53 AM 7.0 °F -1.7 °F 3.9 °F 87% 29.92 in 2.5 mi NNW 4.6 mph - 0.00 in Snow Light Snow
3:03 AM 6.8 °F -2.0 °F 3.2 °F 85% 29.86 in 1.8 mi NNW 4.6 mph - 0.00 in Snow Light Snow
3:40 AM 6.8 °F -2.0 °F 3.2 °F 85% 29.85 in 3.0 mi NNW 4.6 mph - 0.00 in Snow Light Snow
3:53 AM 6.1 °F -0.9 °F 3.0 °F 87% 29.94 in 3.0 mi NNW 3.5 mph - 0.00 in Snow Light Snow
4:00 AM 6.8 °F - 3.2 °F 85% 29.85 in 2.0 mi Calm Calm - 0.00 in Snow Light Snow
4:07 AM 6.8 °F -0.1 °F 3.2 °F 85% 29.86 in 1.5 mi North 3.5 mph - 0.00 in Snow Light Snow
4:41 AM 6.8 °F -0.1 °F 3.2 °F 85% 29.86 in 1.5 mi North 3.5 mph - 0.01 in Snow Light Snow
4:49 AM 6.8 °F - 3.2 °F 85% 29.86 in 1.8 mi Calm Calm - 0.01 in Snow Light Snow
4:53 AM 6.1 °F - 3.0 °F 87% 29.96 in 1.8 mi Calm Calm - 0.01 in Snow Light Snow
5:05 AM 6.8 °F - 3.2 °F 85% 29.86 in 2.5 mi Calm Calm - 0.00 in Snow Light Snow
5:12 AM 6.8 °F - 3.2 °F 85% 29.85 in 3.0 mi Calm Calm - 0.00 in Snow Light Snow
5:26 AM 6.8 °F - 3.2 °F 85% 29.86 in 2.5 mi Calm Calm - 0.00 in Snow Light Snow
5:53 AM 6.1 °F - 1.9 °F 83% 29.97 in 3.0 mi Calm Calm - 0.00 in Snow Light Snow
6:00 AM 6.8 °F - 3.2 °F 85% 29.86 in 1.8 mi Calm Calm - 0.00 in Snow Light Snow
6:25 AM 5.0 °F -6.9 °F 1.4 °F 85% 29.87 in 2.5 mi North 6.9 mph - 0.00 in Snow Light Snow
6:36 AM 5.0 °F -10.0 °F 1.4 °F 85% 29.87 in 3.0 mi NNE 10.4 mph - 0.00 in Snow Light Snow
6:53 AM 5.0 °F -9.1 °F -0.0 °F 80% 30.00 in 5.0 mi NNE 9.2 mph - 0.00 in   Haze
7:05 AM 3.2 °F -7.8 °F -0.4 °F 85% 29.88 in 9.0 mi NNE 5.8 mph - N/A   Overcast
7:53 AM 3.9 °F -5.3 °F -0.9 °F 80% 30.03 in 10.0 mi NNE 4.6 mph - N/A   Overcast
8:53 AM 6.1 °F -0.9 °F -0.9 °F 73% 30.03 in 10.0 mi NE 3.5 mph - N/A   Overcast
9:53 AM 9.0 °F 2.4 °F -0.9 °F 64% 30.01 in 10.0 mi East 3.5 mph - N/A   Partly Cloudy
10:04 AM 8.6 °F 2.0 °F -2.2 °F 62% 29.89 in 10.0 mi Variable 3.5 mph - N/A   Mostly Cloudy
10:20 AM 8.6 °F 2.0 °F -0.4 °F 67% 29.89 in 10.0 mi NNW 3.5 mph - N/A   Scattered Clouds
10:53 AM 9.0 °F - -0.9 °F 64% 29.99 in 10.0 mi Calm Calm - N/A   Mostly Cloudy
11:22 AM 10.4 °F - -2.2 °F 57% 29.86 in 10.0 mi Calm Calm - N/A   Scattered Clouds
11:53 AM 12.0 °F - -2.9 °F 51% 29.92 in 10.0 mi Calm Calm - N/A   Overcast
12:53 PM 12.0 °F - -7.1 °F 42% 29.89 in 10.0 mi Calm Calm - N/A   Overcast
1:53 PM 10.9 °F 2.9 °F -4.0 °F 51% 29.90 in 10.0 mi Variable 4.6 mph - N/A   Overcast
2:53 PM 10.0 °F 1.8 °F -4.0 °F 53% 29.91 in 10.0 mi Variable 4.6 mph - N/A   Mostly Cloudy
3:53 PM 8.1 °F -6.2 °F -2.9 °F 61% 29.95 in 10.0 mi South 10.4 mph - N/A   Overcast
4:53 PM 7.0 °F -6.6 °F -2.0 °F 67% 29.98 in 10.0 mi South 9.2 mph - N/A   Overcast
5:53 PM 5.0 °F -13.0 °F -0.9 °F 76% 30.01 in 10.0 mi SSW 15.0 mph - N/A   Overcast
6:53 PM 3.9 °F -13.7 °F 1.0 °F 88% 30.06 in 5.0 mi SW 13.8 mph - 0.00 in   Overcast
7:30 PM 3.2 °F -13.9 °F -0.4 °F 85% 29.91 in 4.0 mi SSW 12.7 mph - 0.00 in   Overcast
7:37 PM 3.2 °F -11.3 °F 1.4 °F 92% 29.92 in 4.0 mi SSW 9.2 mph - 0.00 in Snow Light Snow
7:53 PM 3.9 °F -13.0 °F 1.0 °F 88% 30.10 in 2.5 mi SW 12.7 mph - 0.00 in Snow Light Snow
8:06 PM 3.2 °F -14.6 °F 1.4 °F 92% 29.93 in 3.0 mi SSW 13.8 mph - 0.00 in Snow Light Snow
8:21 PM 3.2 °F -15.9 °F -0.4 °F 85% 29.93 in 3.0 mi SSW 16.1 mph - 0.00 in Snow Light Snow
8:32 PM 3.2 °F -14.6 °F -0.4 °F 85% 29.94 in 4.0 mi SSW 13.8 mph - 0.00 in Snow Light Snow
8:53 PM 3.9 °F -12.2 °F -0.0 °F 84% 30.10 in 5.0 mi SSW 11.5 mph - 0.00 in   Overcast
9:53 PM 3.0 °F -14.8 °F -2.0 °F 80% 30.09 in 8.0 mi SW 13.8 mph - 0.00 in   Overcast
10:53 PM 1.0 °F -12.9 °F -8.0 °F 66% 30.12 in 10.0 mi SSW 8.1 mph - 0.00 in   Overcast
11:53 PM -0.0 °F -16.3 °F -9.9 °F 63% 30.10 in 10.0 mi SW 10.4 mph - N/A   Partly Cloudy